Date String (YYYY-MM-DD hh:mm:ss) UTC,Instrument flags,absolute air pressure of the measurement (hPa),sample flow rate (lpm),inlet stack bypass flow (lpm),air temperature of the measurement (°C),ambient temperature measured by the external sensor (°C),aerosol sample conditioner tube jacket temperature (°C),OPC LED temperature (°C),internal box temperature (°C),relative humidity of the measurement (%),span deviation,mass concentration of particles derived from Lorenz-Mie calculation of OPC scattering (μg/m³),mass concentration of particles derived from Lorenz-Mie calculation of OPC scattering (μg/m³),mass concentration of particles derived from Lorenz-Mie calculation of OPC scattering (μg/m³)
DateTimeUTC,F1_M11,P_M11,Q1_M11,Q2_M11,T1_M11,T2_M11,T3_M11,T4_M11,T5_M11,U1_M11,ZSPAN_M11,X0_M11,X2_M11,X1_M11
2024-05-08 20:00:00,SystemResetWarning,0821.3,5.01,000.00,023.4,022.8,000.0,031.4,025.1,010.0,0000.0,0002.36,0000.69,0000.30
2024-05-08 20:01:00,SystemResetWarning,0821.3,5.01,000.00,023.4,022.8,000.0,031.4,025.1,009.9,0000.0,0002.14,0000.66,0000.31
2024-05-08 20:02:00,SystemResetWarning,0821.3,5.00,000.00,023.4,022.8,000.0,031.4,025.1,009.8,0000.0,0001.92,0000.64,0000.31
2024-05-08 20:03:00,SystemResetWarning,0821.3,5.00,000.00,023.4,022.8,000.0,031.4,025.1,009.2,0000.0,0001.73,0000.62,0000.32
2024-05-08 20:04:00,SystemResetWarning,0821.3,4.99,000.00,023.4,022.8,000.0,031.5,025.1,009.4,0000.0,0002.28,0000.60,0000.32
2024-05-08 20:05:00,SystemResetWarning,0821.3,5.00,000.00,023.4,022.8,000.0,031.5,025.1,009.5,0000.0,0003.12,0000.63,0000.32
2024-05-08 20:06:00,SystemResetWarning,0821.3,5.00,000.00,023.4,022.9,000.0,031.5,025.1,009.3,0000.0,0002.69,0000.60,0000.31
2024-05-08 20:07:00,SystemResetWarning,0821.4,5.00,000.00,023.5,022.9,000.0,031.5,025.1,009.1,0000.0,0002.60,0000.59,0000.31
2024-05-08 20:08:00,SystemResetWarning,0821.4,4.99,000.00,023.5,022.9,000.0,031.5,025.2,009.0,0000.0,0002.54,0000.56,0000.31
2024-05-08 20:09:00,SystemResetWarning,0821.5,5.01,000.00,023.5,022.9,000.0,031.5,025.2,009.1,0000.0,0002.37,0000.54,0000.31
2024-05-08 20:10:00,SystemResetWarning,0821.6,5.01,000.00,023.5,022.9,000.0,031.5,025.2,009.0,0000.0,0002.46,0000.58,0000.31
2024-05-08 20:11:00,SystemResetWarning,0821.4,5.00,000.00,023.5,022.9,000.0,031.5,025.2,009.4,0000.0,0002.45,0000.57,0000.31
2024-05-08 20:12:00,SystemResetWarning,0821.5,4.99,000.00,023.5,022.9,000.0,031.5,025.2,009.1,0000.0,0002.87,0000.60,0000.31
2024-05-08 20:13:00,SystemResetWarning,0821.7,4.99,000.00,023.5,022.9,000.0,031.6,025.2,009.0,0000.0,0003.10,0000.60,0000.30
2024-05-08 20:14:00,SystemResetWarning,0821.9,5.01,000.00,023.5,023.0,000.0,031.6,025.2,009.1,0000.0,0003.47,0000.60,0000.29
2024-05-08 20:15:00,SystemResetWarning,0822.0,5.01,000.00,023.6,023.0,000.0,031.6,025.2,009.4,0000.0,0002.78,0000.60,0000.28
2024-05-08 20:16:00,SystemResetWarning,0821.6,5.00,000.00,023.6,023.0,000.0,031.6,025.2,009.9,0000.0,0001.95,0000.55,0000.28
2024-05-08 20:17:00,SystemResetWarning,0821.9,5.00,000.00,023.6,023.0,000.0,031.6,025.3,009.7,0000.0,0002.00,0000.58,0000.28
2024-05-08 20:18:00,SystemResetWarning,0821.9,5.00,000.00,023.6,023.0,000.0,031.6,025.3,009.6,0000.0,0002.08,0000.62,0000.29
2024-05-08 20:19:00,SystemResetWarning,0821.8,5.00,000.00,023.6,023.0,000.0,031.6,025.3,009.2,0000.0,0002.06,0000.61,0000.29
2024-05-08 20:20:00,SystemResetWarning,0821.9,5.00,000.00,023.6,023.0,000.0,031.6,025.4,009.2,0000.0,0002.05,0000.60,0000.28
2024-05-08 20:21:00,SystemResetWarning,0821.7,4.99,000.00,023.6,023.0,000.0,031.6,025.4,008.9,0000.0,0001.96,0000.56,0000.28
2024-05-08 20:22:00,SystemResetWarning,0821.6,5.00,000.00,023.7,023.0,000.0,031.7,025.4,008.9,0000.0,0002.06,0000.59,0000.27
2024-05-08 20:23:00,SystemResetWarning,0821.6,5.00,000.00,023.7,023.1,000.0,031.7,025.4,009.2,0000.0,0001.79,0000.57,0000.27
2024-05-08 20:24:00,SystemResetWarning,0821.6,5.00,000.00,023.7,023.1,000.0,031.7,025.4,008.9,0000.0,0001.69,0000.61,0000.27
2024-05-08 20:25:00,SystemResetWarning,0821.7,5.00,000.00,023.7,023.1,000.0,031.7,025.4,008.8,0000.0,0001.58,0000.63,0000.27
2024-05-08 20:26:00,SystemResetWarning,0821.6,5.00,000.00,023.7,023.1,000.0,031.7,025.4,008.9,0000.0,0001.53,0000.62,0000.27
2024-05-08 20:27:00,SystemResetWarning,0821.6,4.99,000.00,023.7,023.1,000.0,031.7,025.4,009.0,0000.0,0001.52,0000.61,0000.26
2024-05-08 20:28:00,SystemResetWarning,0821.7,5.00,000.00,023.7,023.1,000.0,031.7,025.4,009.6,0000.0,0001.48,0000.58,0000.26
2024-05-08 20:29:00,SystemResetWarning,0821.6,5.01,000.00,023.7,023.1,000.0,031.7,025.5,009.9,0000.0,0001.39,0000.54,0000.26
2024-05-08 20:30:00,SystemResetWarning,0821.6,5.01,000.00,023.7,023.1,000.0,031.7,025.5,010.0,0000.0,0001.43,0000.55,0000.26
2024-05-08 20:31:00,SystemResetWarning,0821.6,5.00,000.00,023.8,023.1,000.0,031.8,025.5,009.8,0000.0,0001.46,0000.56,0000.26
2024-05-08 20:32:00,SystemResetWarning,0821.7,4.98,000.00,023.8,023.1,000.0,031.8,025.5,009.4,0000.0,0001.45,0000.55,0000.26
2024-05-08 20:33:00,SystemResetWarning,0821.7,5.01,000.00,023.8,023.1,000.0,031.8,025.5,009.6,0000.0,0001.38,0000.54,0000.26
2024-05-08 20:34:00,SystemResetWarning,0821.7,5.01,000.00,023.8,023.2,000.0,031.8,025.5,009.6,0000.0,0001.26,0000.52,0000.26
2024-05-08 20:35:00,SystemResetWarning,0821.7,5.01,000.00,023.8,023.2,000.0,031.8,025.5,009.8,0000.0,0001.12,0000.46,0000.26
2024-05-08 20:36:00,SystemResetWarning,0821.7,4.99,000.00,023.8,023.2,000.0,031.8,025.5,009.9,0000.0,0001.33,0000.42,0000.27
2024-05-08 20:37:00,SystemResetWarning,0821.7,4.99,000.00,023.8,023.2,000.0,031.8,025.5,010.0,0000.0,0001.31,0000.42,0000.28
2024-05-08 20:38:00,SystemResetWarning,0821.8,5.01,000.00,023.8,023.2,000.0,031.8,025.5,009.3,0000.0,0001.30,0000.43,0000.28
2024-05-08 20:39:00,SystemResetWarning,0821.8,5.01,000.00,023.8,023.2,000.0,031.8,025.5,009.2,0000.0,0001.31,0000.43,0000.29
2024-05-08 20:40:00,SystemResetWarning,0821.7,5.00,000.00,023.8,023.2,000.0,031.9,025.5,009.5,0000.0,0001.37,0000.45,0000.29
2024-05-08 20:41:00,SystemResetWarning,0821.7,4.99,000.00,023.9,023.2,000.0,031.9,025.5,010.1,0000.0,0001.41,0000.43,0000.29
2024-05-08 20:42:00,SystemResetWarning,0821.7,4.99,000.00,023.9,023.3,000.0,031.9,025.5,009.8,0000.0,0001.89,0000.44,0000.29
2024-05-08 20:43:00,SystemResetWarning,0821.7,5.00,000.00,023.9,023.3,000.0,031.9,025.5,010.2,0000.0,0002.14,0000.46,0000.30
2024-05-08 20:44:00,SystemResetWarning,0821.8,5.01,000.00,023.9,023.3,000.0,031.9,025.6,010.5,0000.0,0002.38,0000.50,0000.31
2024-05-08 20:45:00,SystemResetWarning,0821.7,5.01,000.00,023.9,023.3,000.0,031.9,025.6,010.3,0000.0,0002.53,0000.54,0000.32
2024-05-08 20:46:00,SystemResetWarning,0821.7,5.00,000.00,023.9,023.3,000.0,031.9,025.5,010.4,0000.0,0002.66,0000.58,0000.34
2024-05-08 20:47:00,SystemResetWarning,0821.6,4.99,000.00,023.9,023.3,000.0,032.0,025.6,009.5,0000.0,0002.83,0000.62,0000.34
2024-05-08 20:48:00,SystemResetWarning,0821.6,4.99,000.00,023.9,023.3,000.0,032.0,025.6,009.1,0000.0,0002.90,0000.63,0000.34
2024-05-08 20:49:00,SystemResetWarning,0821.7,5.01,000.00,023.9,023.3,000.0,032.0,025.6,009.0,0000.0,0003.16,0000.64,0000.34
2024-05-08 20:50:00,SystemResetWarning,0821.7,5.01,000.00,023.9,023.3,000.0,032.0,025.6,009.1,0000.0,0003.77,0000.63,0000.34
2024-05-08 20:51:00,SystemResetWarning,0821.7,5.01,000.00,024.0,023.4,000.0,032.0,025.6,009.5,0000.0,0003.71,0000.61,0000.33
2024-05-08 20:52:00,SystemResetWarning,0821.7,4.99,000.00,024.0,023.4,000.0,032.0,025.6,009.2,0000.0,0003.70,0000.61,0000.33
2024-05-08 20:53:00,SystemResetWarning,0821.7,5.00,000.00,024.0,023.4,000.0,032.0,025.6,009.1,0000.0,0003.14,0000.57,0000.33
2024-05-08 20:54:00,SystemResetWarning,0821.7,4.99,000.00,024.0,023.4,000.0,032.1,025.6,009.2,0000.0,0003.02,0000.54,0000.32
2024-05-08 20:55:00,SystemResetWarning,0821.8,5.00,000.00,024.0,023.4,000.0,032.1,025.6,009.0,0000.0,0002.67,0000.51,0000.31
2024-05-08 20:56:00,SystemResetWarning,0821.8,5.00,000.00,024.0,023.4,000.0,032.1,025.7,009.1,0000.0,0002.73,0000.49,0000.30
2024-05-08 20:57:00,SystemResetWarning,0821.8,5.00,000.00,024.0,023.4,000.0,032.1,025.7,009.2,0000.0,0002.83,0000.46,0000.29
2024-05-08 20:58:00,SystemResetWarning,0821.8,5.00,000.00,024.0,023.4,000.0,032.1,025.7,009.1,0000.0,0002.48,0000.45,0000.29
2024-05-08 20:59:00,SystemResetWarning,0821.8,4.99,000.00,024.0,023.4,000.0,032.1,025.7,008.9,0000.0,0002.12,0000.45,0000.29
